Home > Weather > Gaborone > Past weeks

Flag for Botswana Past Weather in Gaborone, Botswana — Yesterday and Last 2 Weeks

Now
43 °F

Sunny.


Feels Like: 43 °F
Forecast: 40 / 71 °F
Wind: 2 mph from North

Location: Seretse Khama International Airport

Current Time: Jun 27, 2016 at 9:47:46 AM

Latest Report: Jun 27, 2016 at 8:00 AM


Visibility: 10 mi

Pressure: 30.36 "Hg (26.83 "Hg at 1009m altitude)

Humidity: 87%

Dew Point: 39 °F

Location of GaboroneLocation

Past Weather in Gaborone — Graph

°F

Gaborone Temperature Yesterday

Maximum temperature yesterday: 70 °F (at 3:00 PM)
Minimum temperature yesterday: 39 °F (at 7:00 AM)
Average temperature yesterday: 56 °F

High & Low Weather Summary for the Past Weeks

 TemperatureHumidityPressure
High79 °F (Jun 16, 4:00 PM)100% (Jun 13, 8:00 AM)30.57 "Hg (Jun 13, 8:00 AM)
Low37 °F (Jun 27, 7:00 AM)12% (Jun 21, 4:00 PM)30.15 "Hg (Jun 16, 2:00 PM)
Average57 °F67%30.31 "Hg
* Reported Jun 12 8:00 AM — Jun 27 8:00 AM, Gaborone, Weather by CustomWeather, © 2016

Note: Actual official high and low records may vary slightly from our data, if they occured in-between our weather recording intervals... More about our weather records

Advertising

Gaborone Weather History for the Previous 24 Hours

Scroll right to see more
 ConditionsComfort  
Time TempWeatherWind HumidityBarometerVisibility
8:00 AM
Mon, Jun 27
43 °FSunny.2 mph87%30.36 "Hg10 mi
7:00 AM37 °FSunny.6 mph100%30.36 "Hg10 mi
6:00 AM41 °FSunny.5 mph81%30.33 "Hg10 mi
5:00 AM39 °FClear.3 mph87%30.33 "Hg10 mi
4:00 AM41 °FClear.3 mph87%30.33 "Hg10 mi
3:00 AM45 °FClear.2 mph76%30.33 "Hg10 mi
2:00 AM45 °FClear.5 mph76%30.36 "Hg10 mi
1:00 AM46 °FClear.6 mph71%30.36 "Hg10 mi
12:00 AM48 °FClear.3 mph66%30.36 "Hg10 mi
11:00 PM
Sun, Jun 26
48 °FPassing clouds.3 mph66%30.36 "HgN/A
10:00 PM50 °FClear.2 mph62%30.36 "Hg10 mi
9:00 PM50 °FClear.2 mph67%30.36 "Hg10 mi
8:00 PM55 °FClear.2 mph47%30.36 "Hg10 mi
7:00 PM57 °FClear.2 mph48%30.33 "Hg10 mi
6:00 PM61 °FClear.2 mph42%30.33 "Hg10 mi
5:00 PM68 °FClear.7 mph26%30.30 "Hg10 mi
4:00 PM70 °FPassing clouds.6 mph25%30.30 "HgN/A
3:00 PM70 °FPassing clouds.7 mph25%30.30 "HgN/A
2:00 PM68 °FPassing clouds.6 mph30%30.33 "HgN/A
1:00 PM68 °FPassing clouds.5 mph30%30.36 "HgN/A
12:00 PM66 °FSunny.3 mph35%30.42 "Hg10 mi
11:00 AM64 °FPassing clouds.3 mph40%30.42 "HgN/A
10:00 AM57 °FSunny.1 mph55%30.42 "Hg10 mi
9:00 AM55 °FSunny.2 mph63%30.42 "Hg10 mi
Weather by CustomWeather, © 2016

See weather overviewHow to use our weather pages